Time,TemperatureF,DewpointF,PressureIn,WindDirection,WindDirectionDegrees,WindSpeedMPH,WindSpeedGustMPH,Humidity,HourlyPrecipIn,Conditions,Clouds,dailyrainin,SoftwareType,DateUTC
2013-04-07 00:00:00,58.0,54.8,30.04,SE,140,0.0,-999.0,89,0.00,,,0.00,WeatherSnoop3.0,2013-04-07 05:00:00,
2013-04-07 00:05:00,57.9,54.7,30.04,ESE,119,0.0,-999.0,89,0.00,,,0.00,WeatherSnoop3.0,2013-04-07 05:05:00,
2013-04-07 00:10:00,57.8,54.6,30.04,SE,127,0.0,-999.0,89,0.00,,,0.00,WeatherSnoop3.0,2013-04-07 05:10:00,
2013-04-07 00:15:00,57.7,54.8,30.04,SE,134,0.0,-999.0,90,0.00,,,0.00,WeatherSnoop3.0,2013-04-07 05:15:00,
2013-04-07 00:20:00,57.7,54.8,30.04,SE,128,0.0,-999.0,90,0.00,,,0.00,WeatherSnoop3.0,2013-04-07 05:20:00,
2013-04-07 00:25:00,57.7,54.8,30.04,SE,134,0.0,-999.0,90,0.00,,,0.00,WeatherSnoop3.0,2013-04-07 05:25:00,
2013-04-07 00:30:00,57.7,54.8,30.04,SE,134,0.0,-999.0,90,0.00,,,0.00,WeatherSnoop3.0,2013-04-07 05:30:00,
2013-04-07 00:35:00,57.7,54.8,30.04,SE,135,0.0,-999.0,90,0.00,,,0.00,WeatherSnoop3.0,2013-04-07 05:35:00,
2013-04-07 00:40:00,57.7,54.8,30.04,SE,130,0.0,-999.0,90,0.00,,,0.00,WeatherSnoop3.0,2013-04-07 05:40:00,
2013-04-07 00:45:00,57.7,54.8,30.04,SE,130,0.0,-999.0,90,0.00,,,0.00,WeatherSnoop3.0,2013-04-07 05:45:00,
2013-04-07 00:50:00,57.6,54.7,30.04,SE,130,0.0,-999.0,90,0.00,,,0.00,WeatherSnoop3.0,2013-04-07 05:50:00,
2013-04-07 00:55:00,57.5,54.6,30.04,SE,130,0.0,-999.0,90,0.00,,,0.00,WeatherSnoop3.0,2013-04-07 05:55:00,
2013-04-07 01:00:00,57.4,54.5,30.04,SE,130,0.0,-999.0,90,0.00,,,0.00,WeatherSnoop3.0,2013-04-07 06:00:00,
2013-04-07 01:05:00,57.5,54.9,30.03,ESE,123,0.0,-999.0,91,0.00,,,0.00,WeatherSnoop3.0,2013-04-07 06:05:00,
2013-04-07 01:10:00,57.4,54.8,30.03,SE,126,0.0,-999.0,91,0.00,,,0.00,WeatherSnoop3.0,2013-04-07 06:10:00,
2013-04-07 01:15:00,57.4,54.8,30.03,SE,128,0.0,-999.0,91,0.00,,,0.00,WeatherSnoop3.0,2013-04-07 06:15:00,
2013-04-07 01:20:00,57.4,54.8,30.03,SE,129,0.0,-999.0,91,0.00,,,0.00,WeatherSnoop3.0,2013-04-07 06:20:00,
2013-04-07 01:25:00,57.5,55.2,30.03,SE,129,0.0,-999.0,92,0.00,,,0.00,WeatherSnoop3.0,2013-04-07 06:25:00,
2013-04-07 01:30:00,57.3,54.7,30.03,SE,129,0.0,-999.0,91,0.00,,,0.00,WeatherSnoop3.0,2013-04-07 06:30:00,
2013-04-07 01:35:00,57.3,54.7,30.03,SE,129,0.0,-999.0,91,0.00,,,0.00,WeatherSnoop3.0,2013-04-07 06:35:00,
2013-04-07 01:40:00,57.2,54.9,30.04,SE,129,0.0,-999.0,92,0.00,,,0.00,WeatherSnoop3.0,2013-04-07 06:40:00,
2013-04-07 01:45:00,57.1,54.8,30.03,SE,129,0.0,-999.0,92,0.00,,,0.00,WeatherSnoop3.0,2013-04-07 06:45:00,
2013-04-07 01:50:00,57.0,54.7,30.03,SE,130,0.0,-999.0,92,0.00,,,0.00,WeatherSnoop3.0,2013-04-07 06:50:00,
2013-04-07 01:55:00,57.0,54.7,30.03,SE,129,0.0,-999.0,92,0.00,,,0.00,WeatherSnoop3.0,2013-04-07 06:55:00,
2013-04-07 02:00:00,56.9,54.9,30.03,SE,130,0.0,-999.0,93,0.00,,,0.00,WeatherSnoop3.0,2013-04-07 07:00:00,
2013-04-07 02:05:00,57.0,55.0,30.03,SE,129,0.0,-999.0,93,0.00,,,0.00,WeatherSnoop3.0,2013-04-07 07:05:00,
2013-04-07 02:10:00,57.0,55.0,30.03,SE,129,0.0,-999.0,93,0.00,,,0.00,WeatherSnoop3.0,2013-04-07 07:10:00,
2013-04-07 02:15:00,57.0,55.0,30.03,SE,129,0.0,-999.0,93,0.00,,,0.00,WeatherSnoop3.0,2013-04-07 07:15:00,
2013-04-07 02:20:00,57.0,55.0,30.03,SE,130,0.0,-999.0,93,0.00,,,0.00,WeatherSnoop3.0,2013-04-07 07:20:00,
2013-04-07 02:25:00,57.0,55.0,30.03,SE,129,0.0,-999.0,93,0.00,,,0.00,WeatherSnoop3.0,2013-04-07 07:25:00,
2013-04-07 02:30:00,56.9,54.9,30.03,SE,129,0.0,-999.0,93,0.00,,,0.00,WeatherSnoop3.0,2013-04-07 07:30:00,
2013-04-07 02:35:00,56.9,54.9,30.02,SE,129,0.0,-999.0,93,0.00,,,0.00,WeatherSnoop3.0,2013-04-07 07:35:00,
2013-04-07 02:40:00,56.9,54.9,30.02,SE,130,0.0,-999.0,93,0.00,,,0.00,WeatherSnoop3.0,2013-04-07 07:40:00,
2013-04-07 02:45:00,57.0,55.3,30.02,SE,128,0.0,-999.0,94,0.00,,,0.00,WeatherSnoop3.0,2013-04-07 07:45:00,
2013-04-07 02:50:00,57.2,55.5,30.02,SE,129,0.0,-999.0,94,0.00,,,0.00,WeatherSnoop3.0,2013-04-07 07:50:00,
2013-04-07 02:55:00,57.3,55.6,30.01,SE,129,0.0,-999.0,94,0.00,,,0.00,WeatherSnoop3.0,2013-04-07 07:55:00,
2013-04-07 03:00:00,57.4,55.7,30.01,SE,129,0.0,-999.0,94,0.00,,,0.00,WeatherSnoop3.0,2013-04-07 08:00:00,
2013-04-07 03:05:00,57.3,55.6,30.01,SE,129,0.0,-999.0,94,0.00,,,0.00,WeatherSnoop3.0,2013-04-07 08:05:00,
2013-04-07 03:10:00,57.3,55.6,30.01,SE,129,0.0,-999.0,94,0.00,,,0.00,WeatherSnoop3.0,2013-04-07 08:10:00,
2013-04-07 03:15:00,57.2,55.5,30.02,SE,129,0.0,-999.0,94,0.00,,,0.00,WeatherSnoop3.0,2013-04-07 08:15:00,
2013-04-07 03:20:00,57.1,55.4,30.01,SE,129,0.0,-999.0,94,0.00,,,0.00,WeatherSnoop3.0,2013-04-07 08:20:00,
2013-04-07 03:25:00,57.0,55.3,30.01,SE,129,0.0,-999.0,94,0.00,,,0.00,WeatherSnoop3.0,2013-04-07 08:25:00,
2013-04-07 03:30:00,57.0,55.3,30.01,SE,129,0.0,-999.0,94,0.00,,,0.00,WeatherSnoop3.0,2013-04-07 08:30:00,
2013-04-07 03:35:00,57.1,55.4,30.01,SE,129,0.0,-999.0,94,0.00,,,0.00,WeatherSnoop3.0,2013-04-07 08:35:00,
2013-04-07 03:40:00,57.2,55.5,30.01,SE,129,0.0,-999.0,94,0.00,,,0.00,WeatherSnoop3.0,2013-04-07 08:40:00,
2013-04-07 03:45:00,57.2,55.5,30.01,SE,129,0.0,-999.0,94,0.00,,,0.00,WeatherSnoop3.0,2013-04-07 08:45:00,
2013-04-07 03:50:00,57.2,55.5,30.01,SE,129,0.0,-999.0,94,0.00,,,0.00,WeatherSnoop3.0,2013-04-07 08:50:00,
2013-04-07 03:55:00,57.0,55.3,30.01,SE,130,0.0,-999.0,94,0.00,,,0.00,WeatherSnoop3.0,2013-04-07 08:55:00,
2013-04-07 04:00:00,56.9,55.2,30.01,SE,129,0.0,-999.0,94,0.00,,,0.00,WeatherSnoop3.0,2013-04-07 09:00:00,
2013-04-07 04:05:00,56.9,55.2,30.01,SE,129,0.0,-999.0,94,0.00,,,0.00,WeatherSnoop3.0,2013-04-07 09:05:00,
2013-04-07 04:10:00,56.8,55.1,30.01,SE,129,0.0,-999.0,94,0.00,,,0.00,WeatherSnoop3.0,2013-04-07 09:10:00,
2013-04-07 04:15:00,56.8,55.1,30.01,SE,129,0.0,-999.0,94,0.00,,,0.00,WeatherSnoop3.0,2013-04-07 09:15:00,
2013-04-07 04:20:00,56.7,55.0,30.01,SE,129,0.0,-999.0,94,0.00,,,0.00,WeatherSnoop3.0,2013-04-07 09:20:00,
2013-04-07 04:25:00,56.5,54.8,30.01,SE,128,0.0,-999.0,94,0.00,,,0.00,WeatherSnoop3.0,2013-04-07 09:25:00,
2013-04-07 04:30:00,56.4,54.7,30.01,SE,130,0.0,-999.0,94,0.00,,,0.00,WeatherSnoop3.0,2013-04-07 09:30:00,
2013-04-07 04:35:00,56.3,54.9,30.01,SE,129,0.0,-999.0,95,0.00,,,0.00,WeatherSnoop3.0,2013-04-07 09:35:00,
2013-04-07 04:40:00,56.3,54.9,30.00,SE,130,0.0,-999.0,95,0.00,,,0.00,WeatherSnoop3.0,2013-04-07 09:40:00,
2013-04-07 04:46:00,56.3,54.9,30.01,SE,129,0.0,-999.0,95,0.00,,,0.00,WeatherSnoop3.0,2013-04-07 09:46:00,
2013-04-07 04:51:00,56.5,55.1,30.01,SE,130,0.0,-999.0,95,0.00,,,0.00,WeatherSnoop3.0,2013-04-07 09:51:00,
2013-04-07 04:56:00,56.6,55.2,30.01,SE,129,0.0,-999.0,95,0.00,,,0.00,WeatherSnoop3.0,2013-04-07 09:56:00,
2013-04-07 05:01:00,56.7,55.3,30.01,SE,129,0.0,-999.0,95,0.00,,,0.00,WeatherSnoop3.0,2013-04-07 10:01:00,
2013-04-07 05:06:00,56.9,55.5,30.00,SE,130,0.0,-999.0,95,0.00,,,0.00,WeatherSnoop3.0,2013-04-07 10:06:00,
2013-04-07 05:11:00,57.1,55.7,30.00,SE,129,0.0,-999.0,95,0.00,,,0.00,WeatherSnoop3.0,2013-04-07 10:11:00,
2013-04-07 05:16:00,57.2,56.1,30.01,SE,129,0.0,-999.0,96,0.00,,,0.00,WeatherSnoop3.0,2013-04-07 10:16:00,
2013-04-07 05:21:00,57.3,56.2,30.01,SE,129,0.0,-999.0,96,0.00,,,0.00,WeatherSnoop3.0,2013-04-07 10:21:00,
2013-04-07 05:26:00,57.3,56.2,30.01,SE,129,0.0,-999.0,96,0.00,,,0.00,WeatherSnoop3.0,2013-04-07 10:26:00,
2013-04-07 05:31:00,57.5,56.4,30.01,SE,129,0.0,-999.0,96,0.00,,,0.00,WeatherSnoop3.0,2013-04-07 10:31:00,
2013-04-07 05:36:00,57.5,56.4,30.01,SE,129,0.0,-999.0,96,0.00,,,0.00,WeatherSnoop3.0,2013-04-07 10:36:00,
2013-04-07 05:41:00,57.7,56.6,30.01,SE,130,0.0,-999.0,96,0.00,,,0.00,WeatherSnoop3.0,2013-04-07 10:41:00,
2013-04-07 05:47:00,57.7,56.6,30.02,SE,129,0.0,-999.0,96,0.00,,,0.00,WeatherSnoop3.0,2013-04-07 10:47:00,
2013-04-07 05:52:00,57.8,56.7,30.02,SE,129,0.0,-999.0,96,0.00,,,0.00,WeatherSnoop3.0,2013-04-07 10:52:00,
2013-04-07 05:57:00,57.8,56.7,30.01,SE,130,0.0,-999.0,96,0.00,,,0.00,WeatherSnoop3.0,2013-04-07 10:57:00,
2013-04-07 06:02:00,57.8,56.7,30.02,SE,129,0.0,-999.0,96,0.00,,,0.00,WeatherSnoop3.0,2013-04-07 11:02:00,
2013-04-07 06:07:00,57.8,56.7,30.02,SE,128,0.0,-999.0,96,0.00,,,0.00,WeatherSnoop3.0,2013-04-07 11:07:00,
2013-04-07 06:12:00,57.9,56.8,30.02,SE,128,0.0,-999.0,96,0.00,,,0.00,WeatherSnoop3.0,2013-04-07 11:12:00,
2013-04-07 06:17:00,58.0,56.9,30.02,ESE,117,0.0,-999.0,96,0.00,,,0.00,WeatherSnoop3.0,2013-04-07 11:17:00,
2013-04-07 06:22:00,58.1,57.0,30.02,ESE,117,0.0,-999.0,96,0.00,,,0.00,WeatherSnoop3.0,2013-04-07 11:22:00,
2013-04-07 06:27:00,58.2,57.1,30.02,ESE,117,0.0,-999.0,96,0.00,,,0.00,WeatherSnoop3.0,2013-04-07 11:27:00,
2013-04-07 06:32:00,58.2,57.1,30.02,ESE,117,0.0,-999.0,96,0.00,,,0.00,WeatherSnoop3.0,2013-04-07 11:32:00,
2013-04-07 06:37:00,58.3,57.2,30.03,ESE,117,0.0,-999.0,96,0.00,,,0.00,WeatherSnoop3.0,2013-04-07 11:37:00,
2013-04-07 06:42:00,58.3,57.2,30.03,ESE,116,0.0,-999.0,96,0.00,,,0.00,WeatherSnoop3.0,2013-04-07 11:42:00,
2013-04-07 06:47:00,58.4,57.3,30.03,ESE,116,0.0,-999.0,96,0.00,,,0.00,WeatherSnoop3.0,2013-04-07 11:47:00,
2013-04-07 06:52:00,58.4,57.3,30.03,ESE,119,0.0,-999.0,96,0.00,,,0.00,WeatherSnoop3.0,2013-04-07 11:52:00,
2013-04-07 06:57:00,58.4,57.3,30.03,SE,130,0.0,-999.0,96,0.00,,,0.00,WeatherSnoop3.0,2013-04-07 11:57:00,
2013-04-07 07:02:00,58.4,57.3,30.03,ESE,117,0.0,-999.0,96,0.00,,,0.00,WeatherSnoop3.0,2013-04-07 12:02:00,
2013-04-07 07:07:00,58.3,57.2,30.03,ESE,121,0.0,-999.0,96,0.00,,,0.00,WeatherSnoop3.0,2013-04-07 12:07:00,
2013-04-07 07:12:00,58.4,57.3,30.03,ESE,117,0.0,-999.0,96,0.00,,,0.00,WeatherSnoop3.0,2013-04-07 12:12:00,
2013-04-07 07:17:00,58.4,57.3,30.03,East,101,0.0,-999.0,96,0.00,,,0.00,WeatherSnoop3.0,2013-04-07 12:17:00,
2013-04-07 07:22:00,58.5,57.4,30.03,ESE,113,0.0,-999.0,96,0.00,,,0.00,WeatherSnoop3.0,2013-04-07 12:22:00,
2013-04-07 07:27:00,58.6,57.5,30.03,ESE,123,0.0,-999.0,96,0.00,,,0.00,WeatherSnoop3.0,2013-04-07 12:27:00,
2013-04-07 07:32:00,58.7,57.6,30.03,ESE,113,0.0,-999.0,96,0.00,,,0.00,WeatherSnoop3.0,2013-04-07 12:32:00,
2013-04-07 07:37:00,58.9,57.8,30.04,ESE,112,0.0,-999.0,96,0.00,,,0.00,WeatherSnoop3.0,2013-04-07 12:37:00,
2013-04-07 07:42:00,59.1,58.0,30.05,ESE,112,0.0,-999.0,96,0.00,,,0.00,WeatherSnoop3.0,2013-04-07 12:42:00,
2013-04-07 07:47:00,59.4,58.3,30.04,ESE,113,0.0,-999.0,96,0.00,,,0.00,WeatherSnoop3.0,2013-04-07 12:47:00,
2013-04-07 07:52:00,59.5,58.4,30.05,ESE,113,0.0,-999.0,96,0.00,,,0.00,WeatherSnoop3.0,2013-04-07 12:52:00,
2013-04-07 07:57:00,59.7,58.6,30.04,ESE,119,0.0,-999.0,96,0.00,,,0.00,WeatherSnoop3.0,2013-04-07 12:57:00,
2013-04-07 08:02:00,60.0,58.9,30.05,ESE,121,0.0,-999.0,96,0.00,,,0.00,WeatherSnoop3.0,2013-04-07 13:02:00,
2013-04-07 08:07:00,60.3,59.2,30.05,ESE,116,0.0,-999.0,96,0.00,,,0.00,WeatherSnoop3.0,2013-04-07 13:07:00,
2013-04-07 08:12:00,60.5,59.4,30.05,East,96,0.0,-999.0,96,0.00,,,0.00,WeatherSnoop3.0,2013-04-07 13:12:00,
2013-04-07 08:17:00,60.5,59.1,30.05,SE,130,0.0,-999.0,95,0.00,,,0.00,WeatherSnoop3.0,2013-04-07 13:17:00,
2013-04-07 08:22:00,60.5,59.1,30.05,ESE,113,0.0,-999.0,95,0.00,,,0.00,WeatherSnoop3.0,2013-04-07 13:22:00,
2013-04-07 08:27:00,60.7,59.3,30.06,ESE,113,0.0,-999.0,95,0.00,,,0.00,WeatherSnoop3.0,2013-04-07 13:27:00,
2013-04-07 08:32:00,60.9,59.5,30.06,ESE,122,0.0,-999.0,95,0.00,,,0.00,WeatherSnoop3.0,2013-04-07 13:32:00,
2013-04-07 08:37:00,61.2,59.8,30.06,ESE,122,0.0,-999.0,95,0.00,,,0.00,WeatherSnoop3.0,2013-04-07 13:37:00,
2013-04-07 08:42:00,61.5,60.1,30.06,ESE,122,0.0,-999.0,95,0.00,,,0.00,WeatherSnoop3.0,2013-04-07 13:42:00,
2013-04-07 08:47:00,61.9,60.5,30.06,ESE,121,0.0,-999.0,95,0.00,,,0.00,WeatherSnoop3.0,2013-04-07 13:47:00,
2013-04-07 08:52:00,62.3,60.8,30.06,ESE,118,0.0,-999.0,95,0.00,,,0.00,WeatherSnoop3.0,2013-04-07 13:52:00,
2013-04-07 08:57:00,62.6,60.8,30.06,SE,124,0.0,-999.0,94,0.00,,,0.00,WeatherSnoop3.0,2013-04-07 13:57:00,
2013-04-07 09:02:00,63.0,61.2,30.05,SE,126,0.0,-999.0,94,0.00,,,0.00,WeatherSnoop3.0,2013-04-07 14:02:00,
2013-04-07 09:07:00,63.4,61.6,30.06,SE,138,0.0,-999.0,94,0.00,,,0.00,WeatherSnoop3.0,2013-04-07 14:07:00,
2013-04-07 09:12:00,64.0,62.2,30.06,SE,133,0.0,-999.0,94,0.00,,,0.00,WeatherSnoop3.0,2013-04-07 14:12:00,
2013-04-07 09:17:00,64.5,62.4,30.06,SE,138,0.0,-999.0,93,0.00,,,0.00,WeatherSnoop3.0,2013-04-07 14:17:00,
2013-04-07 09:22:00,65.0,62.6,30.06,ESE,107,0.0,-999.0,92,0.00,,,0.00,WeatherSnoop3.0,2013-04-07 14:22:00,
2013-04-07 09:28:00,65.5,62.8,30.06,SE,130,0.0,-999.0,91,0.00,,,0.00,WeatherSnoop3.0,2013-04-07 14:28:00,
2013-04-07 09:33:00,66.0,63.3,30.06,SE,138,0.0,-999.0,91,0.00,,,0.00,WeatherSnoop3.0,2013-04-07 14:33:00,
2013-04-07 09:38:00,66.2,62.9,30.06,SSE,167,0.0,-999.0,89,0.00,,,0.00,WeatherSnoop3.0,2013-04-07 14:38:00,
2013-04-07 09:43:00,66.6,63.3,30.06,SE,146,0.0,-999.0,89,0.00,,,0.00,WeatherSnoop3.0,2013-04-07 14:43:00,
2013-04-07 09:48:00,67.2,63.8,30.06,ESE,120,0.0,-999.0,89,0.00,,,0.00,WeatherSnoop3.0,2013-04-07 14:48:00,
2013-04-07 09:53:00,67.7,63.7,30.06,South,169,0.0,-999.0,87,0.00,,,0.00,WeatherSnoop3.0,2013-04-07 14:53:00,
2013-04-07 09:58:00,67.9,63.9,30.06,ESE,111,0.0,-999.0,87,0.00,,,0.00,WeatherSnoop3.0,2013-04-07 14:58:00,
2013-04-07 10:03:00,68.2,64.2,30.06,SE,136,0.0,-999.0,87,0.00,,,0.00,WeatherSnoop3.0,2013-04-07 15:03:00,
2013-04-07 10:08:00,68.6,64.2,30.06,SSE,157,0.0,-999.0,86,0.00,,,0.00,WeatherSnoop3.0,2013-04-07 15:08:00,
2013-04-07 10:13:00,69.2,64.5,30.06,South,176,0.0,-999.0,85,0.00,,,0.00,WeatherSnoop3.0,2013-04-07 15:13:00,
2013-04-07 10:18:00,69.3,63.9,30.06,South,174,0.0,-999.0,83,0.00,,,0.00,WeatherSnoop3.0,2013-04-07 15:18:00,
2013-04-07 10:23:00,69.2,63.1,30.06,SSW,192,0.0,-999.0,81,0.00,,,0.00,WeatherSnoop3.0,2013-04-07 15:23:00,
2013-04-07 10:28:00,69.8,64.0,30.06,SSE,148,0.0,-999.0,82,0.00,,,0.00,WeatherSnoop3.0,2013-04-07 15:28:00,
2013-04-07 10:33:00,70.2,64.1,30.06,SE,140,0.0,-999.0,81,0.00,,,0.00,WeatherSnoop3.0,2013-04-07 15:33:00,
2013-04-07 10:38:00,70.4,62.8,30.07,SSW,192,0.0,-999.0,77,0.00,,,0.00,WeatherSnoop3.0,2013-04-07 15:38:00,
2013-04-07 10:43:00,70.3,63.1,30.07,SSE,150,0.0,-999.0,78,0.00,,,0.00,WeatherSnoop3.0,2013-04-07 15:43:00,
2013-04-07 10:48:00,70.1,62.9,30.07,SSE,148,0.0,-999.0,78,0.00,,,0.00,WeatherSnoop3.0,2013-04-07 15:48:00,
2013-04-07 10:53:00,70.0,62.4,30.07,South,175,0.0,-999.0,77,0.00,,,0.00,WeatherSnoop3.0,2013-04-07 15:53:00,
2013-04-07 10:58:00,70.2,62.6,30.07,South,176,0.0,-999.0,77,0.00,,,0.00,WeatherSnoop3.0,2013-04-07 15:58:00,
2013-04-07 11:03:00,70.9,62.9,30.07,SSE,160,0.0,-999.0,76,0.00,,,0.00,WeatherSnoop3.0,2013-04-07 16:03:00,
2013-04-07 11:08:00,71.4,62.7,30.07,SSE,167,0.0,-999.0,74,0.00,,,0.00,WeatherSnoop3.0,2013-04-07 16:08:00,
2013-04-07 11:13:00,71.9,63.9,30.07,SSE,157,0.0,-999.0,76,0.00,,,0.00,WeatherSnoop3.0,2013-04-07 16:13:00,
2013-04-07 11:18:00,72.4,63.6,30.07,SSE,148,0.0,-999.0,74,0.00,,,0.00,WeatherSnoop3.0,2013-04-07 16:18:00,
2013-04-07 11:23:00,72.4,62.5,30.07,SSW,194,0.0,-999.0,71,0.00,,,0.00,WeatherSnoop3.0,2013-04-07 16:23:00,
2013-04-07 11:28:00,72.4,62.5,30.06,SSW,198,0.0,-999.0,71,0.00,,,0.00,WeatherSnoop3.0,2013-04-07 16:28:00,
2013-04-07 11:33:00,71.9,61.2,30.06,South,171,0.0,-999.0,69,0.00,,,0.00,WeatherSnoop3.0,2013-04-07 16:33:00,
2013-04-07 11:38:00,72.3,62.4,30.06,South,180,0.0,-999.0,71,0.00,,,0.00,WeatherSnoop3.0,2013-04-07 16:38:00,
2013-04-07 11:43:00,72.0,62.1,30.06,South,186,0.0,-999.0,71,0.00,,,0.00,WeatherSnoop3.0,2013-04-07 16:43:00,
2013-04-07 11:48:00,72.8,63.6,30.06,SSE,163,0.0,-999.0,73,0.00,,,0.00,WeatherSnoop3.0,2013-04-07 16:48:00,
2013-04-07 11:53:00,73.1,62.3,30.06,SE,128,0.0,-999.0,69,0.00,,,0.00,WeatherSnoop3.0,2013-04-07 16:53:00,
2013-04-07 11:58:00,73.4,63.0,30.06,SSE,155,0.0,-999.0,70,0.00,,,0.00,WeatherSnoop3.0,2013-04-07 16:58:00,
2013-04-07 12:03:00,73.7,62.9,30.05,SSE,150,0.0,-999.0,69,0.00,,,0.00,WeatherSnoop3.0,2013-04-07 17:03:00,
2013-04-07 12:08:00,73.9,63.1,30.05,SSE,162,0.0,-999.0,69,0.00,,,0.00,WeatherSnoop3.0,2013-04-07 17:08:00,
2013-04-07 12:13:00,74.2,63.8,30.05,SE,136,0.0,-999.0,70,0.00,,,0.00,WeatherSnoop3.0,2013-04-07 17:13:00,
2013-04-07 12:18:00,74.8,62.7,30.05,SSE,157,0.0,-999.0,66,0.00,,,0.00,WeatherSnoop3.0,2013-04-07 17:18:00,
2013-04-07 12:23:00,75.1,62.9,30.05,SSE,164,0.0,-999.0,66,0.00,,,0.00,WeatherSnoop3.0,2013-04-07 17:23:00,
2013-04-07 12:28:00,75.2,63.5,30.05,SSW,209,0.0,-999.0,67,0.00,,,0.00,WeatherSnoop3.0,2013-04-07 17:28:00,
2013-04-07 12:33:00,75.3,63.6,30.05,SE,134,0.0,-999.0,67,0.00,,,0.00,WeatherSnoop3.0,2013-04-07 17:33:00,
2013-04-07 12:38:00,75.4,62.8,30.04,SSW,213,0.0,-999.0,65,0.00,,,0.00,WeatherSnoop3.0,2013-04-07 17:38:00,
2013-04-07 12:43:00,74.9,63.2,30.04,SSW,207,0.0,-999.0,67,0.00,,,0.00,WeatherSnoop3.0,2013-04-07 17:43:00,
2013-04-07 12:48:00,74.8,62.7,30.04,SE,139,0.0,-999.0,66,0.00,,,0.00,WeatherSnoop3.0,2013-04-07 17:48:00,
2013-04-07 12:53:00,74.6,62.0,30.04,South,177,0.0,-999.0,65,0.00,,,0.00,WeatherSnoop3.0,2013-04-07 17:53:00,
2013-04-07 12:58:00,74.9,63.2,30.03,SSE,160,0.0,-999.0,67,0.00,,,0.00,WeatherSnoop3.0,2013-04-07 17:58:00,
2013-04-07 13:03:00,76.2,64.0,30.03,SSE,159,0.0,-999.0,66,0.00,,,0.00,WeatherSnoop3.0,2013-04-07 18:03:00,
2013-04-07 13:08:00,76.0,62.5,30.03,South,180,0.0,-999.0,63,0.00,,,0.00,WeatherSnoop3.0,2013-04-07 18:08:00,
2013-04-07 13:13:00,75.0,62.4,30.03,SW,219,0.0,-999.0,65,0.00,,,0.00,WeatherSnoop3.0,2013-04-07 18:13:00,
2013-04-07 13:18:00,75.8,64.9,30.03,SE,142,0.0,-999.0,69,0.00,,,0.00,WeatherSnoop3.0,2013-04-07 18:18:00,
2013-04-07 13:23:00,76.5,64.7,30.02,South,169,0.0,-999.0,67,0.00,,,0.01,WeatherSnoop3.0,2013-04-07 18:23:00,
2013-04-07 13:28:00,77.0,63.9,30.02,SSE,158,0.0,-999.0,64,0.00,,,0.01,WeatherSnoop3.0,2013-04-07 18:28:00,
2013-04-07 13:33:00,76.9,63.3,30.02,SSE,168,0.0,-999.0,63,0.00,,,0.01,WeatherSnoop3.0,2013-04-07 18:33:00,
2013-04-07 13:38:00,77.1,63.1,30.02,South,183,0.0,-999.0,62,0.00,,,0.01,WeatherSnoop3.0,2013-04-07 18:38:00,
2013-04-07 13:43:00,76.5,62.0,30.01,SE,140,0.0,-999.0,61,0.00,,,0.01,WeatherSnoop3.0,2013-04-07 18:43:00,
2013-04-07 13:48:00,75.9,61.9,30.01,South,175,0.0,-999.0,62,0.00,,,0.01,WeatherSnoop3.0,2013-04-07 18:48:00,
2013-04-07 13:53:00,75.5,63.3,30.01,South,182,0.0,-999.0,66,0.00,,,0.01,WeatherSnoop3.0,2013-04-07 18:53:00,
2013-04-07 13:58:00,75.2,63.5,30.01,SSW,211,0.0,-999.0,67,0.00,,,0.01,WeatherSnoop3.0,2013-04-07 18:58:00,
2013-04-07 14:03:00,74.9,63.2,30.01,South,181,0.0,-999.0,67,0.00,,,0.01,WeatherSnoop3.0,2013-04-07 19:03:00,
2013-04-07 14:08:00,75.0,62.9,30.01,SSW,213,0.0,-999.0,66,0.00,,,0.01,WeatherSnoop3.0,2013-04-07 19:08:00,
2013-04-07 14:13:00,75.2,63.9,30.00,SSW,213,0.0,-999.0,68,0.00,,,0.01,WeatherSnoop3.0,2013-04-07 19:13:00,
2013-04-07 14:18:00,76.2,63.6,30.00,SSW,209,0.0,-999.0,65,0.00,,,0.01,WeatherSnoop3.0,2013-04-07 19:18:00,
2013-04-07 14:23:00,76.1,64.3,30.00,South,189,0.0,-999.0,67,0.00,,,0.01,WeatherSnoop3.0,2013-04-07 19:23:00,
2013-04-07 14:28:00,75.8,63.2,30.00,SSW,192,0.0,-999.0,65,0.00,,,0.01,WeatherSnoop3.0,2013-04-07 19:28:00,
2013-04-07 14:33:00,75.0,62.9,30.00,SSE,163,0.0,-999.0,66,0.00,,,0.01,WeatherSnoop3.0,2013-04-07 19:33:00,
2013-04-07 14:38:00,75.7,63.5,30.00,SSE,168,0.0,-999.0,66,0.00,,,0.01,WeatherSnoop3.0,2013-04-07 19:38:00,
2013-04-07 14:43:00,75.5,62.9,30.00,South,177,0.0,-999.0,65,0.00,,,0.01,WeatherSnoop3.0,2013-04-07 19:43:00,
2013-04-07 14:48:00,76.2,64.4,29.99,South,179,0.0,-999.0,67,0.00,,,0.01,WeatherSnoop3.0,2013-04-07 19:48:00,
2013-04-07 14:53:00,76.2,63.1,29.99,SSW,202,0.0,-999.0,64,0.00,,,0.01,WeatherSnoop3.0,2013-04-07 19:53:00,
2013-04-07 14:58:00,75.5,62.5,29.99,South,186,0.0,-999.0,64,0.00,,,0.01,WeatherSnoop3.0,2013-04-07 19:58:00,
2013-04-07 15:03:00,76.0,63.4,29.99,SSE,154,0.0,-999.0,65,0.00,,,0.01,WeatherSnoop3.0,2013-04-07 20:03:00,
2013-04-07 15:08:00,76.6,62.6,29.99,SSE,161,0.0,-999.0,62,0.00,,,0.01,WeatherSnoop3.0,2013-04-07 20:08:00,
2013-04-07 15:13:00,77.2,63.2,29.99,South,184,0.0,-999.0,62,0.00,,,0.01,WeatherSnoop3.0,2013-04-07 20:13:00,
2013-04-07 15:18:00,76.6,63.0,29.99,South,178,0.0,-999.0,63,0.00,,,0.01,WeatherSnoop3.0,2013-04-07 20:18:00,
2013-04-07 15:23:00,76.2,63.1,29.98,SSW,204,0.0,-999.0,64,0.00,,,0.01,WeatherSnoop3.0,2013-04-07 20:23:00,
2013-04-07 15:28:00,76.7,63.1,29.98,SE,130,0.0,-999.0,63,0.00,,,0.01,WeatherSnoop3.0,2013-04-07 20:28:00,
2013-04-07 15:33:00,76.6,63.0,29.98,SSE,150,0.0,-999.0,63,0.00,,,0.01,WeatherSnoop3.0,2013-04-07 20:33:00,
2013-04-07 15:38:00,76.6,63.0,29.97,SW,217,0.0,-999.0,63,0.00,,,0.01,WeatherSnoop3.0,2013-04-07 20:38:00,
2013-04-07 15:43:00,75.8,62.7,29.97,SSE,160,0.0,-999.0,64,0.00,,,0.01,WeatherSnoop3.0,2013-04-07 20:43:00,
2013-04-07 15:48:00,75.7,62.6,29.97,SE,146,0.0,-999.0,64,0.00,,,0.01,WeatherSnoop3.0,2013-04-07 20:48:00,
2013-04-07 15:53:00,76.8,64.6,29.97,SSW,193,0.0,-999.0,66,0.00,,,0.01,WeatherSnoop3.0,2013-04-07 20:53:00,
2013-04-07 15:58:00,76.0,63.4,29.97,South,169,0.0,-999.0,65,0.00,,,0.01,WeatherSnoop3.0,2013-04-07 20:58:00,
2013-04-07 16:03:00,76.0,63.8,29.96,SE,136,0.0,-999.0,66,0.00,,,0.01,WeatherSnoop3.0,2013-04-07 21:03:00,
2013-04-07 16:08:00,76.6,62.6,29.96,South,180,0.0,-999.0,62,0.00,,,0.01,WeatherSnoop3.0,2013-04-07 21:08:00,
2013-04-07 16:13:00,76.9,63.3,29.97,SSE,157,0.0,-999.0,63,0.00,,,0.01,WeatherSnoop3.0,2013-04-07 21:13:00,
2013-04-07 16:18:00,76.4,63.7,29.96,SE,124,0.0,-999.0,65,0.00,,,0.01,WeatherSnoop3.0,2013-04-07 21:18:00,
2013-04-07 16:23:00,77.2,62.7,29.96,South,184,0.0,-999.0,61,0.00,,,0.01,WeatherSnoop3.0,2013-04-07 21:23:00,
2013-04-07 16:28:00,77.4,62.9,29.96,SSE,156,0.0,-999.0,61,0.00,,,0.01,WeatherSnoop3.0,2013-04-07 21:28:00,
2013-04-07 16:33:00,77.2,63.2,29.96,SSW,194,0.0,-999.0,62,0.00,,,0.01,WeatherSnoop3.0,2013-04-07 21:33:00,
2013-04-07 16:38:00,76.2,63.1,29.96,SE,140,0.0,-999.0,64,0.00,,,0.01,WeatherSnoop3.0,2013-04-07 21:38:00,
2013-04-07 16:43:00,75.5,61.6,29.96,South,180,0.0,-999.0,62,0.00,,,0.01,WeatherSnoop3.0,2013-04-07 21:43:00,
2013-04-07 16:48:00,75.1,61.6,29.96,South,184,0.0,-999.0,63,0.00,,,0.01,WeatherSnoop3.0,2013-04-07 21:48:00,
2013-04-07 16:53:00,76.3,63.2,29.96,SE,146,0.0,-999.0,64,0.00,,,0.01,WeatherSnoop3.0,2013-04-07 21:53:00,
2013-04-07 16:58:00,77.2,62.7,29.95,SSE,149,0.0,-999.0,61,0.00,,,0.01,WeatherSnoop3.0,2013-04-07 21:58:00,
2013-04-07 17:03:00,77.7,62.7,29.95,SE,142,0.0,-999.0,60,0.00,,,0.01,WeatherSnoop3.0,2013-04-07 22:03:00,
2013-04-07 17:08:00,77.7,61.7,29.95,SSE,155,0.0,-999.0,58,0.00,,,0.01,WeatherSnoop3.0,2013-04-07 22:08:00,
2013-04-07 17:13:00,77.6,61.6,29.95,SSE,148,0.0,-999.0,58,0.00,,,0.01,WeatherSnoop3.0,2013-04-07 22:13:00,
2013-04-07 17:18:00,77.5,62.0,29.95,ESE,123,0.0,-999.0,59,0.00,,,0.01,WeatherSnoop3.0,2013-04-07 22:18:00,
2013-04-07 17:23:00,77.1,61.2,29.95,South,175,0.0,-999.0,58,0.00,,,0.01,WeatherSnoop3.0,2013-04-07 22:23:00,
2013-04-07 17:28:00,76.1,60.7,29.94,SSE,148,0.0,-999.0,59,0.00,,,0.01,WeatherSnoop3.0,2013-04-07 22:28:00,
2013-04-07 17:33:00,75.7,61.3,29.94,East,99,0.0,-999.0,61,0.00,,,0.01,WeatherSnoop3.0,2013-04-07 22:33:00,
2013-04-07 17:38:00,76.0,62.5,29.94,SE,125,0.0,-999.0,63,0.00,,,0.01,WeatherSnoop3.0,2013-04-07 22:38:00,
2013-04-07 17:43:00,76.1,61.2,29.95,SE,131,0.0,-999.0,60,0.00,,,0.01,WeatherSnoop3.0,2013-04-07 22:43:00,
2013-04-07 17:48:00,76.2,61.8,29.95,SSE,162,0.0,-999.0,61,0.00,,,0.01,WeatherSnoop3.0,2013-04-07 22:48:00,
2013-04-07 17:53:00,75.5,61.1,29.95,SE,142,0.0,-999.0,61,0.00,,,0.01,WeatherSnoop3.0,2013-04-07 22:53:00,
2013-04-07 17:58:00,74.6,61.2,29.95,SE,143,0.0,-999.0,63,0.00,,,0.01,WeatherSnoop3.0,2013-04-07 22:58:00,
2013-04-07 18:03:00,73.7,60.8,29.95,SSE,164,0.0,-999.0,64,0.00,,,0.01,WeatherSnoop3.0,2013-04-07 23:03:00,
2013-04-07 18:08:00,73.1,61.1,29.95,SE,139,0.0,-999.0,66,0.00,,,0.01,WeatherSnoop3.0,2013-04-07 23:08:00,
2013-04-07 18:13:00,72.8,61.2,29.95,SSE,150,0.0,-999.0,67,0.00,,,0.01,WeatherSnoop3.0,2013-04-07 23:13:00,
2013-04-07 18:18:00,72.5,61.3,29.95,SSE,161,0.0,-999.0,68,0.00,,,0.01,WeatherSnoop3.0,2013-04-07 23:18:00,
2013-04-07 18:23:00,72.2,61.0,29.95,SE,138,0.0,-999.0,68,0.00,,,0.01,WeatherSnoop3.0,2013-04-07 23:23:00,
2013-04-07 18:28:00,72.1,60.5,29.94,SSE,153,0.0,-999.0,67,0.00,,,0.01,WeatherSnoop3.0,2013-04-07 23:28:00,
2013-04-07 18:33:00,72.0,60.4,29.94,SSE,153,0.0,-999.0,67,0.00,,,0.01,WeatherSnoop3.0,2013-04-07 23:33:00,
2013-04-07 18:38:00,71.8,60.2,29.94,SE,138,0.0,-999.0,67,0.00,,,0.01,WeatherSnoop3.0,2013-04-07 23:38:00,
2013-04-07 18:43:00,71.7,61.0,29.94,SSE,160,0.0,-999.0,69,0.00,,,0.01,WeatherSnoop3.0,2013-04-07 23:43:00,
2013-04-07 18:48:00,71.8,61.1,29.94,SE,132,0.0,-999.0,69,0.00,,,0.01,WeatherSnoop3.0,2013-04-07 23:48:00,
2013-04-07 18:53:00,71.9,60.8,29.93,SSE,161,0.0,-999.0,68,0.00,,,0.01,WeatherSnoop3.0,2013-04-07 23:53:00,
2013-04-07 18:58:00,71.9,61.2,29.93,SE,142,0.0,-999.0,69,0.00,,,0.01,WeatherSnoop3.0,2013-04-07 23:58:00,
2013-04-07 19:03:00,71.7,61.4,29.94,SSE,156,0.0,-999.0,70,0.00,,,0.01,WeatherSnoop3.0,2013-04-08 00:03:00,
2013-04-07 19:08:00,71.5,61.6,29.94,South,176,0.0,-999.0,71,0.00,,,0.01,WeatherSnoop3.0,2013-04-08 00:08:00,
2013-04-07 19:13:00,71.1,61.6,29.94,SE,140,0.0,-999.0,72,0.00,,,0.01,WeatherSnoop3.0,2013-04-08 00:13:00,
2013-04-07 19:18:00,70.9,61.4,29.94,SSE,163,0.0,-999.0,72,0.00,,,0.01,WeatherSnoop3.0,2013-04-08 00:18:00,
2013-04-07 19:23:00,70.6,61.1,29.94,SSE,150,0.0,-999.0,72,0.00,,,0.01,WeatherSnoop3.0,2013-04-08 00:23:00,
2013-04-07 19:28:00,70.3,60.8,29.94,SE,133,0.0,-999.0,72,0.00,,,0.01,WeatherSnoop3.0,2013-04-08 00:28:00,
2013-04-07 19:33:00,70.1,61.0,29.94,SSE,155,0.0,-999.0,73,0.00,,,0.01,WeatherSnoop3.0,2013-04-08 00:33:00,
2013-04-07 19:38:00,69.7,60.6,29.94,SE,134,0.0,-999.0,73,0.00,,,0.01,WeatherSnoop3.0,2013-04-08 00:38:00,
2013-04-07 19:43:00,69.5,60.8,29.95,South,191,0.0,-999.0,74,0.00,,,0.01,WeatherSnoop3.0,2013-04-08 00:43:00,
2013-04-07 19:48:00,69.2,60.9,29.95,SSE,161,0.0,-999.0,75,0.00,,,0.01,WeatherSnoop3.0,2013-04-08 00:48:00,
2013-04-07 19:53:00,69.0,61.1,29.95,SSE,163,0.0,-999.0,76,0.00,,,0.01,WeatherSnoop3.0,2013-04-08 00:53:00,
2013-04-07 19:58:00,68.8,61.3,29.95,SSE,161,0.0,-999.0,77,0.00,,,0.01,WeatherSnoop3.0,2013-04-08 00:58:00,
2013-04-07 20:03:00,68.6,61.5,29.95,South,170,0.0,-999.0,78,0.00,,,0.01,WeatherSnoop3.0,2013-04-08 01:03:00,
2013-04-07 20:08:00,68.4,61.6,29.95,SSE,147,0.0,-999.0,79,0.00,,,0.01,WeatherSnoop3.0,2013-04-08 01:08:00,
2013-04-07 20:13:00,68.2,61.8,29.96,SSE,150,0.0,-999.0,80,0.00,,,0.01,WeatherSnoop3.0,2013-04-08 01:13:00,
2013-04-07 20:18:00,68.0,61.6,29.96,SSE,165,0.0,-999.0,80,0.00,,,0.01,WeatherSnoop3.0,2013-04-08 01:18:00,
2013-04-07 20:23:00,67.8,61.7,29.96,SE,144,0.0,-999.0,81,0.00,,,0.01,WeatherSnoop3.0,2013-04-08 01:23:00,
2013-04-07 20:28:00,67.5,61.5,29.96,SE,144,0.0,-999.0,81,0.00,,,0.01,WeatherSnoop3.0,2013-04-08 01:28:00,
2013-04-07 20:33:00,67.3,61.3,29.96,SE,142,0.0,-999.0,81,0.00,,,0.01,WeatherSnoop3.0,2013-04-08 01:33:00,
2013-04-07 20:38:00,67.2,61.5,29.96,SE,142,0.0,-999.0,82,0.00,,,0.01,WeatherSnoop3.0,2013-04-08 01:38:00,
2013-04-07 20:43:00,67.0,61.3,29.96,SSE,163,0.0,-999.0,82,0.00,,,0.01,WeatherSnoop3.0,2013-04-08 01:43:00,
2013-04-07 20:48:00,66.8,61.1,29.96,SSE,155,0.0,-999.0,82,0.00,,,0.01,WeatherSnoop3.0,2013-04-08 01:48:00,
2013-04-07 20:53:00,66.6,61.3,29.96,ESE,120,0.0,-999.0,83,0.00,,,0.01,WeatherSnoop3.0,2013-04-08 01:53:00,
2013-04-07 20:58:00,66.4,61.1,29.96,SE,136,0.0,-999.0,83,0.00,,,0.01,WeatherSnoop3.0,2013-04-08 01:58:00,
2013-04-07 21:03:00,66.2,60.9,29.96,SE,129,0.0,-999.0,83,0.00,,,0.01,WeatherSnoop3.0,2013-04-08 02:03:00,
2013-04-07 21:08:00,66.0,61.0,29.96,SE,146,0.0,-999.0,84,0.00,,,0.01,WeatherSnoop3.0,2013-04-08 02:08:00,
2013-04-07 21:13:00,65.8,60.8,29.96,SE,142,0.0,-999.0,84,0.00,,,0.01,WeatherSnoop3.0,2013-04-08 02:13:00,
2013-04-07 21:18:00,65.7,60.7,29.96,SE,135,0.0,-999.0,84,0.00,,,0.01,WeatherSnoop3.0,2013-04-08 02:18:00,
2013-04-07 21:23:00,65.6,60.6,29.96,SE,139,0.0,-999.0,84,0.00,,,0.01,WeatherSnoop3.0,2013-04-08 02:23:00,
2013-04-07 21:28:00,65.6,61.0,29.96,SE,143,0.0,-999.0,85,0.00,,,0.01,WeatherSnoop3.0,2013-04-08 02:28:00,
2013-04-07 21:33:00,65.6,61.0,29.96,ESE,123,0.0,-999.0,85,0.00,,,0.01,WeatherSnoop3.0,2013-04-08 02:33:00,
2013-04-07 21:38:00,65.6,61.0,29.96,ESE,115,0.0,-999.0,85,0.00,,,0.01,WeatherSnoop3.0,2013-04-08 02:38:00,
2013-04-07 21:43:00,65.6,61.0,29.96,SSE,152,0.0,-999.0,85,0.00,,,0.01,WeatherSnoop3.0,2013-04-08 02:43:00,
2013-04-07 21:48:00,65.6,61.0,29.96,SE,146,0.0,-999.0,85,0.00,,,0.01,WeatherSnoop3.0,2013-04-08 02:48:00,
2013-04-07 21:53:00,65.6,61.0,29.97,SE,146,0.0,-999.0,85,0.00,,,0.01,WeatherSnoop3.0,2013-04-08 02:53:00,
2013-04-07 21:59:00,65.4,60.8,29.97,SSE,161,0.0,-999.0,85,0.00,,,0.01,WeatherSnoop3.0,2013-04-08 02:59:00,
2013-04-07 22:04:00,65.3,61.0,29.97,SE,146,0.0,-999.0,86,0.00,,,0.01,WeatherSnoop3.0,2013-04-08 03:04:00,
2013-04-07 22:09:00,65.3,61.0,29.97,SSE,158,0.0,-999.0,86,0.00,,,0.01,WeatherSnoop3.0,2013-04-08 03:09:00,
2013-04-07 22:14:00,65.3,61.0,29.96,SE,133,0.0,-999.0,86,0.00,,,0.01,WeatherSnoop3.0,2013-04-08 03:14:00,
2013-04-07 22:19:00,65.2,61.2,29.96,SE,133,0.0,-999.0,87,0.00,,,0.01,WeatherSnoop3.0,2013-04-08 03:19:00,
2013-04-07 22:24:00,65.1,61.1,29.97,SE,141,0.0,-999.0,87,0.00,,,0.01,WeatherSnoop3.0,2013-04-08 03:24:00,
2013-04-07 22:29:00,65.0,61.0,29.97,SE,143,0.0,-999.0,87,0.00,,,0.01,WeatherSnoop3.0,2013-04-08 03:29:00,
2013-04-07 22:34:00,65.0,61.4,29.97,ESE,114,0.0,-999.0,88,0.00,,,0.01,WeatherSnoop3.0,2013-04-08 03:34:00,
2013-04-07 22:39:00,65.0,61.4,29.97,SE,138,0.0,-999.0,88,0.00,,,0.01,WeatherSnoop3.0,2013-04-08 03:39:00,
2013-04-07 22:45:00,65.0,61.4,29.97,SE,132,0.0,-999.0,88,0.00,,,0.01,WeatherSnoop3.0,2013-04-08 03:45:00,
2013-04-07 22:50:00,65.1,61.5,29.97,ESE,123,0.0,-999.0,88,0.00,,,0.01,WeatherSnoop3.0,2013-04-08 03:50:00,
2013-04-07 22:55:00,65.0,61.4,29.97,SE,135,0.0,-999.0,88,0.00,,,0.01,WeatherSnoop3.0,2013-04-08 03:55:00,
2013-04-07 23:00:00,65.0,61.4,29.97,SE,137,0.0,-999.0,88,0.00,,,0.01,WeatherSnoop3.0,2013-04-08 04:00:00,
2013-04-07 23:01:00,65.0,61.4,29.96,SE,131,0.0,-999.0,88,0.00,,,0.01,WeatherSnoop3.0,2013-04-08 04:01:00,
2013-04-07 23:06:00,65.0,61.7,29.96,ESE,117,0.0,-999.0,89,0.00,,,0.01,WeatherSnoop3.0,2013-04-08 04:06:00,
2013-04-07 23:11:00,65.0,61.7,29.96,SE,126,0.0,-999.0,89,0.00,,,0.01,WeatherSnoop3.0,2013-04-08 04:11:00,
2013-04-07 23:16:00,65.0,61.7,29.96,ESE,112,0.0,-999.0,89,0.00,,,0.01,WeatherSnoop3.0,2013-04-08 04:16:00,
2013-04-07 23:21:00,64.9,61.6,29.96,SSE,157,0.0,-999.0,89,0.00,,,0.01,WeatherSnoop3.0,2013-04-08 04:21:00,
2013-04-07 23:27:00,64.9,61.9,29.96,SE,140,0.0,-999.0,90,0.00,,,0.01,WeatherSnoop3.0,2013-04-08 04:27:00,
2013-04-07 23:32:00,64.9,61.9,29.96,SE,144,0.0,-999.0,90,0.00,,,0.01,WeatherSnoop3.0,2013-04-08 04:32:00,
2013-04-07 23:37:00,64.9,61.9,29.96,SSE,153,0.0,-999.0,90,0.00,,,0.01,WeatherSnoop3.0,2013-04-08 04:37:00,
2013-04-07 23:42:00,64.8,61.8,29.96,SSE,148,0.0,-999.0,90,0.00,,,0.01,WeatherSnoop3.0,2013-04-08 04:42:00,
2013-04-07 23:47:00,64.8,61.8,29.96,SE,131,0.0,-999.0,90,0.00,,,0.01,WeatherSnoop3.0,2013-04-08 04:47:00,
2013-04-07 23:52:00,64.8,62.4,29.96,SE,138,0.0,-999.0,92,0.00,,,0.01,WeatherSnoop3.0,2013-04-08 04:52:00,
2013-04-07 23:57:00,64.8,62.1,29.96,ESE,117,0.0,-999.0,91,0.00,,,0.01,WeatherSnoop3.0,2013-04-08 04:57:00,